Flag for Netherlands Weather past 2 weeks in Emmen, Netherlands

Now
42 °F

Passing clouds.


Feels Like: 40 °F
Forecast: 36 / 54 °F
Wind: 3 mph from Northeast

Location: Meppen

Current Time: Apr 28, 2015 at 6:13:56 PM

Latest Report: Apr 28, 2015 at 4:00 PM


Visibility: 14 mi

Pressure: 30.01 "Hg

Humidity: 88%

Dew point: 38 °F

Location of EmmenLocation

Historic Weather in Emmen — Graph

°F

Emmen temperature yesterday

Maximum temperature yesterday: 54 °F (at 3:00 PM)
Minimum temperature yesterday: 42 °F (at 10:00 PM)
Average temperature yesterday: 50 °F

Past Weeks' High & Low Weather Summary

 TemperatureHumidityPressure
High72 °F (Apr 15, 4:00 PM)96% (Apr 24, 7:00 AM)30.48 "Hg (Apr 24, 7:00 AM)
Low27 °F (Apr 28, 6:00 AM)29% (Apr 19, 6:00 PM)29.69 "Hg (Apr 27, 4:00 AM)
Average49 °F70%30.10 "Hg
* Reported Apr 13 4:00 PM — Apr 28 4:00 PM, Emmen, Weather by CustomWeather, © 2015

Note: Actual official high and low records may vary slightly from our data, if they occured in-between our weather recording intervals... More about our weather records

Advertising

Emmen weather history for previous 24 hours

 ConditionsComfort  
Time TempWeatherWind HumidityBarometerVisibility
4:00 PM
Tue, Apr 28
42 °FPassing clouds.3 mph88%30.01 "Hg14 mi
3:00 PM44 °FOvercast.N/A85%29.99 "Hg12 mi
2:00 PM51 °FSprinkles. Overcast.5 mph52%29.96 "Hg25 mi
1:00 PM49 °FSprinkles. Overcast.7 mph44%29.96 "Hg25 mi
12:00 PM49 °FOvercast.5 mph45%29.95 "Hg25 mi
10:00 AM45 °FPassing clouds.6 mph56%29.94 "Hg28 mi
9:00 AM42 °FPassing clouds.2 mph62%29.93 "Hg28 mi
7:00 AM28 °FFog.1 mph94%29.91 "Hg22 mi
6:00 AM27 °FPassing clouds.1 mph94%29.90 "Hg22 mi
4:00 AM28 °FChilly.1 mph91%29.88 "Hg7 mi
3:00 AM29 °FChilly.1 mph91%29.88 "Hg8 mi
1:00 AM32 °FChilly.2 mph79%29.88 "Hg9 mi
12:00 AM36 °FChilly.2 mph74%29.87 "Hg9 mi
10:00 PM
Mon, Apr 27
42 °FQuite cool.2 mph62%29.87 "Hg9 mi
9:00 PM44 °FQuite cool.3 mph58%29.85 "Hg9 mi
7:00 PM48 °FCool.5 mph47%29.82 "Hg10 mi
6:00 PM51 °FCool.6 mph49%29.81 "Hg9 mi
Weather by CustomWeather, © 2015

See weather overviewHow to use our weather pages